Starlink 3300

operational
NORAD ID: 50841 Int'l Des: 2022-001 Owner: SPXS Country: US Constellation: starlink
LEOCIRCULAR

Über Starlink 3300

Beschreibung wird geladen...

Live-Position

3D-Globus wird geladen...

Nächste Überflüge

Höhenverlauf

Altitude vs Time

uPlot chart will show altitude changes over time

Zweizeiliger Elementsatz

1 50841U 22001AQ 26062.59667520 .00000276 00000-0 35398-4 0 9996
2 50841 53.2168 206.4735 0001292 82.9777 277.1362 15.08844430229341
Epoch: 3. März 2026 • Age: 30 hours

Aktueller Status

Höhe 556.1 km
Geschwindigkeit 7.58 km/s
Subsatellitenpunkt -45.98°S, 97.82°W
Startdatum 6. Jan. 2022
Alter 4.1 years
Typ internet

Technische Details

Klassifizierung Payload
Masse 297.00 kg
Trockenmasse 275.00 kg
Gesamtmasse 297.00 kg
Länge 0.20 m
Durchmesser 2.80 m
Spannweite 9.00 m
Form Box + pan
Hersteller SPXS
Bus-Typ Starlink
Phasenstatus In Orbit
Besitzer/Staat SPXS/US

Große Konstellationen

Loading constellations...